Terminal Aerodrome Forecast
Issued by NWS Portland, ME

Home | Current Version | Previous Version | Text Only | Print | Product List | Glossary On
Versions: 1 2 3 4 5 6 7 8 9 10 11 12 13 14 15 16 17 18 19 20 21 22 23 24 25 26 27
000
FTUS41 KGYX 272328
TAFCON
TAF
KCON 272328Z 2800/2824 VRB03KT P6SM SCT100
     FM281000 VRB03KT P6SM -RA BKN050
     FM281600 27008KT P6SM SCT050 SCT100=

USA.gov is the U.S. government's official web portal to all federal, state and local government web resources and services.